Weather in Grobina

Latvia     56˚32′07″N   21˚09′48″E
temp.,
°C
wind,
m/s
gust,
m/s
humid.,
%
clouds,
%
prec.,
mm/h
press.,
hPa
HPBL,
m
30 november, mon
mon3023:00+1˚ne2581100 0.1 1023451
02:00n138290 0.1 1022164
05:00nnw128099 0.0 1021123
08:00nne008299 0.0 102149
11:00+1˚ssw128499 0.0 1020139
14:00+2˚s358099 0.1 1019427
17:00+2˚sw4896100 0.9 1018477
20:00+2˚sw2289100 2.4 101874
1 december, tue
tue123:00+2˚s239082 0.9 101773
02:00+2˚sse359091 1.2 1018165
05:00+4˚ssw3689100 0.4 1018217
08:00+4˚ssw4985100 0.7 1020628
11:00+2˚s588198 0.0 1021637
14:00+2˚s477895 0.0 1023667
17:00sse4784100 0.0 1024380
20:00sse378598 0.0 1026348
2 december, wed
wed223:00sse388699 0.0 1027326
02:00−1˚sse368797 0.0 1028273
05:00−1˚sse3687100 0.0 1027265
08:00−2˚se368663 0.0 1028281
11:00−1˚se36790 0.0 1027329
14:00se367223 0.0 1026459
17:00−1˚se387799 0.0 1025389
20:00−1˚se487799 0.0 1024446
3 december, thu
thu323:00−1˚se41074100 0.0 1023463
02:00−2˚sse4977100 0.0 1022437
05:00−1˚sse5987100 0.0 1020523
08:00−1˚sse5985100 0.0 1019625
11:00sse5977100 0.0 1019855
14:00sse5981100 0.0 1018668
17:00sse498290 0.0 1017693
20:00se597995 0.0 1017855
4 december, fri
fri423:00−1˚se4108672 0.0 1017646
02:00se5108180 0.0 1016593
05:00−1˚se5138679 0.0 1014514
08:00−1˚se6138480 0.0 1014513
11:00+1˚se7137799 0.0 1013546
14:00+2˚se7147594 0.0 1012537
17:00+1˚se7158591 0.0 1012546
20:00+3˚se6148895 0.0 1012751